Вернуться в каталог

FLOCK 4BE 28

АктивенНаукаSSO
NORAD 60519·PAYLOAD·🇺🇸 United States

Запущен Aug 16, 2024 с Vandenberg Space Force Base

Loading…

Ближайшие Пролёты (ближайшие 24 часа)

TLE

СвежийSource: CelesTrak SupGP

Эпоха: Sep 14, 2026, 18:45 UTC

1 60519C 24149AB  26257.78145833  .00014314  00000+0  25686-3 0  2571
2 60519  97.3699 345.2426 0002725 349.1810 152.3642 15.49922275    14

Отслеживайте FLOCK 4BE 28 в реальном времени с AllMySat

Download on the App Store